User: anonymous   Login
Location: Starry Hill Observatory
(46.8582°N, 122.3590°W)
Time: 04:26:00
(UTC-08:00)
Language:

Cosmos 1300 Rocket - Orbit

View from above orbital plane
View from above orbital plane
View from above satellite
View from above satellite

Ground track
Ground track

The orbit data is extracted from the following two-line orbital elements,

1 12786U 81082B   16341.51394334  .00000110  00000-0  10163-4 0  9997
2 12786  82.4870 149.2979 0017897 166.2692 193.9014 14.84656955906229
Epoch (UTC): 06 December 2016 12:20:04
Eccentricity: 0.0017897
inclination: 82.4870°
perigee height: 602 km
apogee height: 627 km
right ascension of ascending node: 149.2979°
argument of perigee: 166.2692°
revolutions per day: 14.84656955
mean anomaly at epoch: 193.9014°
orbit number at epoch: 90622

The dashed part of the orbit path shows where the satellite is in the earth's shadow,  

DLR